Find Starlink 36875

NORAD ID: 68300 Int'l Des: 2026-057 Owner: SPXS Country: US Constellation: starlink operational
LEOCIRCULARRETROGRADE

当前视图

正在加载3D地球...

About Starlink 36875

Starlink 36875 (NORAD 68300) is a starlink constellation satellite (v2 mini) launched Mar 20, 2026 by SPXS of US. It operates in LEO, CIRCULAR, RETROGRADE orbit with a mass of 575.00 kg.

关于 Starlink 36875

正在加载描述...

即将过境

Passes for default location (London). Set your location on the main map for personalized predictions.

高度历史

Loading altitude history...

两行轨道根数

1 68300U 26057G 26171.30861726 .00015586 00000-0 48411-3 0 9993
2 68300 97.2857 297.9909 0001177 102.4520 257.6854 15.33445106 14387
Epoch: Jun 20, 2026 • Age: 8 hours

当前状态

高度 493.0 km
速度 7.62 km/s
星下点 -72.08°S, 171.14°W
发射日期 Mar 20, 2026
运行时间 0.2 years
类型 internet

技术详情

分类 Payload
质量 575.00 kg
干质量 530.00 kg
总质量 575.00 kg
长度 0.30 m
直径 4.10 m
跨度 29.00 m
形状 Box + pan
制造商 SPXS
平台类型 Starlink V2MO
阶段状态 In Orbit
所有者/国家 SPXS/US

Most Searched